When you browse on this site, cookies collect data to enhance your experience and personalize the content and advertising you see.
Visit our Privacy Policy to learn more. By continuing to use the site, you agree to this use of cookies and data.
  • In Hungary
  • List of Countries
  • For 7 days
  • Water Temperature
  • Satellite Maps
  • Weather Map
  • News
  • Weather Widgets
  • user-avatar
    Login

    Hourly Weather Kasganj

    Today, 23 March, Saturday

    Time Temperature Precipitation Wind Pressure Humidity
    00:00 +20°C° 0 mm 2 mps 743 mmHg 32%
    01:00 +20°C° 0 mm 2 mps 743 mmHg 33%
    02:00 +19°C° 0 mm 3 mps 743 mmHg 33%
    03:00 +19°C° 0 mm 3 mps 743 mmHg 35%
    04:00 +18°C° 0 mm 3 mps 743 mmHg 37%
    05:00 +17°C° 0 mm 3 mps 742 mmHg 40%
    06:00 +19°C° 0 mm 4 mps 742 mmHg 38%
    07:00 +20°C° 0 mm 4 mps 743 mmHg 37%
    08:00 +22°C° 0 mm 5 mps 743 mmHg 36%
    09:00 +26°C° 0 mm 5 mps 743 mmHg 31%
    10:00 +28°C° 0 mm 6 mps 743 mmHg 26%
    11:00 +32°C° 0 mm 6 mps 744 mmHg 20%
    12:00 +33°C° 0 mm 6 mps 743 mmHg 18%
    13:00 +34°C° 0 mm 6 mps 743 mmHg 16%
    14:00 +35°C° 0 mm 6 mps 742 mmHg 15%
    15:00 +34°C° 0 mm 5 mps 742 mmHg 16%
    16:00 +34°C° 0 mm 4 mps 741 mmHg 18%
    17:00 +33°C° 0 mm 4 mps 741 mmHg 20%
    18:00 +30°C° 0 mm 3 mps 741 mmHg 22%
    19:00 +28°C° 0 mm 3 mps 741 mmHg 24%
    20:00 +26°C° 0 mm 3 mps 742 mmHg 26%
    21:00 +25°C° 0 mm 3 mps 742 mmHg 28%
    22:00 +25°C° 0 mm 3 mps 742 mmHg 30%
    23:00 +24°C° 0 mm 3 mps 742 mmHg 32%

    Tomorrow, 24 March, Sunday

    Time Temperature Precipitation Wind Pressure Humidity
    00:00 +22°C° 0 mm 3 mps 742 mmHg 33%
    01:00 +22°C° 0 mm 3 mps 742 mmHg 35%
    02:00 +22°C° 0 mm 4 mps 741 mmHg 36%
    03:00 +21°C° 0 mm 4 mps 741 mmHg 36%
    04:00 +21°C° 0 mm 3 mps 741 mmHg 35%
    05:00 +21°C° 0 mm 3 mps 741 mmHg 34%
    06:00 +23°C° 0 mm 4 mps 741 mmHg 33%
    07:00 +25°C° 0 mm 4 mps 742 mmHg 31%
    08:00 +27°C° 0 mm 5 mps 743 mmHg 29%
    09:00 +29°C° 0 mm 5 mps 743 mmHg 26%
    10:00 +33°C° 0 mm 6 mps 743 mmHg 23%
    11:00 +35°C° 0 mm 6 mps 743 mmHg 20%
    12:00 +36°C° 0 mm 7 mps 742 mmHg 19%
    13:00 +38°C° 0 mm 7 mps 741 mmHg 17%
    14:00 +38°C° 0 mm 7 mps 741 mmHg 16%
    15:00 +36°C° 0 mm 6 mps 740 mmHg 18%
    16:00 +36°C° 0 mm 5 mps 740 mmHg 20%
    17:00 +35°C° 0 mm 4 mps 740 mmHg 22%
    18:00 +33°C° 0 mm 3 mps 740 mmHg 24%
    19:00 +30°C° 0 mm 3 mps 740 mmHg 27%
    20:00 +28°C° 0 mm 2 mps 741 mmHg 29%
    21:00 +27°C° 0 mm 2 mps 741 mmHg 30%
    22:00 +26°C° 0 mm 2 mps 741 mmHg 31%
    23:00 +26°C° 0 mm 1 mps 741 mmHg 32%

    Day after tomorrow, 25 March, Monday

    Time Temperature Precipitation Wind Pressure Humidity
    00:00 +25°C° 0 mm 1 mps 741 mmHg 33%
    01:00 +25°C° 0 mm 1 mps 741 mmHg 35%
    02:00 +24°C° 0 mm 1 mps 740 mmHg 36%
    03:00 +24°C° 0 mm 1 mps 740 mmHg 36%
    04:00 +24°C° 0 mm 2 mps 741 mmHg 36%
    05:00 +24°C° 0 mm 2 mps 741 mmHg 36%
    06:00 +25°C° 0 mm 1 mps 741 mmHg 35%
    07:00 +26°C° 0 mm 1 mps 742 mmHg 34%
    08:00 +27°C° 0 mm 1 mps 743 mmHg 33%
    09:00 +29°C° 0.2 mm 1 mps 743 mmHg 30%
    10:00 +31°C° 0.2 mm 1 mps 743 mmHg 27%
    11:00 +34°C° 0.2 mm 2 mps 743 mmHg 24%
    12:00 +35°C° 0 mm 2 mps 742 mmHg 22%
    13:00 +36°C° 0 mm 2 mps 741 mmHg 21%
    14:00 +37°C° 0 mm 3 mps 740 mmHg 19%
    15:00 +36°C° 0 mm 3 mps 740 mmHg 22%
    16:00 +35°C° 0 mm 3 mps 740 mmHg 24%
    17:00 +33°C° 0 mm 3 mps 739 mmHg 26%
    18:00 +30°C° 1.6 mm 4 mps 740 mmHg 36%
    19:00 +28°C° 1.6 mm 5 mps 741 mmHg 45%
    20:00 +26°C° 1.6 mm 6 mps 741 mmHg 55%
    21:00 +25°C° 0.2 mm 5 mps 742 mmHg 58%
    22:00 +23°C° 0.2 mm 4 mps 742 mmHg 62%
    23:00 +22°C° 0.2 mm 3 mps 743 mmHg 65%

    26 March, Tuesday

    Time Temperature Precipitation Wind Pressure Humidity
    00:00 +22°C° 0.1 mm 3 mps 742 mmHg 65%
    01:00 +21°C° 0.1 mm 2 mps 742 mmHg 65%
    02:00 +22°C° 0.1 mm 1 mps 742 mmHg 65%
    03:00 +21°C° 0 mm 2 mps 742 mmHg 66%
    04:00 +20°C° 0 mm 2 mps 743 mmHg 67%
    05:00 +20°C° 0 mm 3 mps 743 mmHg 68%
    06:00 +21°C° 0 mm 3 mps 744 mmHg 63%
    07:00 +22°C° 0 mm 3 mps 744 mmHg 57%
    08:00 +24°C° 0 mm 3 mps 745 mmHg 52%
    09:00 +26°C° 0 mm 3 mps 745 mmHg 45%
    10:00 +28°C° 0 mm 3 mps 745 mmHg 38%
    11:00 +30°C° 0 mm 3 mps 745 mmHg 30%
    12:00 +32°C° 0 mm 4 mps 745 mmHg 26%
    13:00 +33°C° 0 mm 4 mps 744 mmHg 22%
    14:00 +35°C° 0 mm 4 mps 743 mmHg 18%
    15:00 +34°C° 0 mm 4 mps 743 mmHg 19%
    16:00 +33°C° 0 mm 3 mps 742 mmHg 21%
    17:00 +33°C° 0 mm 3 mps 742 mmHg 22%
    18:00 +30°C° 0 mm 3 mps 742 mmHg 24%
    19:00 +28°C° 0 mm 2 mps 743 mmHg 26%
    20:00 +26°C° 0 mm 2 mps 743 mmHg 28%
    21:00 +26°C° 0 mm 2 mps 743 mmHg 29%
    22:00 +25°C° 0 mm 2 mps 744 mmHg 30%
    23:00 +25°C° 0 mm 2 mps 744 mmHg 32%

    27 March, Wednesday

    Time Temperature Precipitation Wind Pressure Humidity
    00:00 +24°C° 0 mm 2 mps 743 mmHg 33%
    01:00 +24°C° 0 mm 2 mps 743 mmHg 35%
    02:00 +23°C° 0 mm 2 mps 742 mmHg 36%
    03:00 +23°C° 0 mm 2 mps 742 mmHg 37%
    04:00 +21°C° 0 mm 2 mps 742 mmHg 38%
    05:00 +21°C° 0 mm 3 mps 742 mmHg 38%
    06:00 +22°C° 0 mm 3 mps 743 mmHg 36%
    07:00 +25°C° 0 mm 3 mps 744 mmHg 34%
    08:00 +26°C° 0 mm 3 mps 745 mmHg 32%
    09:00 +29°C° 0 mm 3 mps 745 mmHg 27%
    10:00 +32°C° 0 mm 4 mps 745 mmHg 22%
    11:00 +35°C° 0 mm 5 mps 745 mmHg 16%
    12:00 +36°C° 0 mm 5 mps 744 mmHg 16%
    13:00 +38°C° 0 mm 6 mps 743 mmHg 15%
    14:00 +38°C° 0 mm 6 mps 742 mmHg 15%
    15:00 +37°C° 0 mm 5 mps 742 mmHg 16%
    16:00 +36°C° 0 mm 4 mps 741 mmHg 18%
    17:00 +35°C° 0 mm 3 mps 741 mmHg 19%
    18:00 +34°C° 0 mm 3 mps 741 mmHg 21%
    19:00 +31°C° 0 mm 2 mps 742 mmHg 23%
    20:00 +29°C° 0 mm 2 mps 742 mmHg 25%
    21:00 +28°C° 0 mm 2 mps 742 mmHg 26%
    22:00 +28°C° 0 mm 2 mps 742 mmHg 27%
    23:00 +27°C° 0 mm 2 mps 742 mmHg 28%

    28 March, Thursday

    Time Temperature Precipitation Wind Pressure Humidity
    00:00 +27°C° 0 mm 2 mps 742 mmHg 29%
    01:00 +26°C° 0 mm 2 mps 741 mmHg 30%
    02:00 +26°C° 0 mm 1 mps 741 mmHg 31%
    03:00 +26°C° 0 mm 2 mps 741 mmHg 31%
    04:00 +25°C° 0 mm 2 mps 741 mmHg 32%
    05:00 +25°C° 0 mm 2 mps 741 mmHg 32%
    06:00 +26°C° 0 mm 2 mps 741 mmHg 31%
    07:00 +28°C° 0 mm 2 mps 742 mmHg 29%
    08:00 +29°C° 0 mm 2 mps 743 mmHg 28%
    09:00 +33°C° 0 mm 3 mps 743 mmHg 24%
    10:00 +35°C° 0 mm 3 mps 743 mmHg 21%
    11:00 +38°C° 0 mm 3 mps 743 mmHg 17%
    12:00 +40°C° 0 mm 4 mps 742 mmHg 16%
    13:00 +41°C° 0 mm 5 mps 741 mmHg 16%
    14:00 +42°C° 0 mm 6 mps 740 mmHg 15%
    15:00 +41°C° 0 mm 5 mps 740 mmHg 16%
    16:00 +40°C° 0 mm 4 mps 740 mmHg 18%
    17:00 +39°C° 0 mm 3 mps 739 mmHg 19%
    18:00 +37°C° 0 mm 3 mps 740 mmHg 20%
    19:00 +35°C° 0 mm 3 mps 740 mmHg 22%
    20:00 +32°C° 0 mm 2 mps 741 mmHg 24%
    21:00 +31°C° 0 mm 2 mps 741 mmHg 25%
    22:00 +30°C° 0 mm 2 mps 741 mmHg 27%
    23:00 +29°C° 0 mm 2 mps 741 mmHg 28%
    Show more